Weather History for KACV - November, 2013

Change the Weather History Date:

Thursday, November 14, 2013

  Actual Average Record
Temperature  
Mean Temperature 48 °F -  
Max Temperature 54 °F 56 °F 66 °F (2001)
Min Temperature 41 °F 42 °F 39 °F (2002)
Degree Days  
Heating Degree Days 18    
Moisture  
Dew Point 47 °F    
Average Humidity 87    
Maximum Humidity 94    
Minimum Humidity 72    
Precipitation  
Precipitation 0.02 in - - ()
Sea Level Pressure  
Sea Level Pressure 30.16 in    
Wind  
Wind Speed 3 mph (NNW)    
Max Wind Speed 12 mph    
Max Gust Speed -    
Visibility 6 miles    
Events Rain    
Averages and records for this station are not official NWS values.
T = Trace of Precipitation, MM = Missing Value Source: NWS Daily Summary

Daily Weather History Graph

Daily Weather History Graph

Search for Another Location

Airport or City:

Trip Planner

Search our weather history database for the weather conditions in past years. The results will help you decide how hot, cold, wet, or windy it might be!

Date:

Astronomy

Nov. 14, 2013 Rise Set
Actual Time 7:03 AM PST 4:58 PM PST
Civil Twilight 6:33 AM PST 5:27 PM PST
Nautical Twilight 6:00 AM PST 6:00 PM PST
Astronomical Twilight 5:27 AM PST 6:33 PM PST
Moon 3:23 PM PST (11/14) 4:03 AM PST (11/14)
Length of Visible Light 10h 54m
Length of Day
9h 55m
Waxing Gibbous, 92% of the Moon is Illuminated
Nov 14
Waxing Gibbous
Nov 17
Full
Nov 25
Last Quarter
Dec 2
New
Dec 9
First Quarter

Hourly Weather History & Observations

Time (PST) Temp. Windchill Dew Point Humidity Pressure Visibility Wind Dir Wind Speed Gust Speed Precip Events Conditions
12:53 AM 52.0 °F - 50.0 °F 93% 30.25 in 4.0 mi Calm Calm - N/A   Overcast
1:23 AM 51.8 °F - 50.0 °F 94% 30.23 in 2.5 mi South 3.5 mph - 0.01 in   Overcast
1:33 AM 51.8 °F - 50.0 °F 94% 30.23 in 4.0 mi SSE 3.5 mph - 0.01 in   Overcast
1:53 AM 52.0 °F - 50.0 °F 93% 30.25 in 4.0 mi Calm Calm - 0.01 in   Overcast
2:53 AM 52.0 °F - 50.0 °F 93% 30.23 in 5.0 mi Calm Calm - N/A   Overcast
3:53 AM 52.0 °F - 50.0 °F 93% 30.21 in 8.0 mi Calm Calm - N/A   Overcast
4:53 AM 51.1 °F - 48.0 °F 89% 30.23 in 7.0 mi WNW 4.6 mph - N/A   Overcast
5:36 AM 51.8 °F - 48.2 °F 88% 30.20 in 8.0 mi Calm Calm - N/A   Overcast
5:53 AM 51.1 °F - 48.0 °F 89% 30.22 in 7.0 mi Calm Calm - N/A   Overcast
6:02 AM 51.8 °F - 48.2 °F 88% 30.20 in 7.0 mi Calm Calm - N/A   Overcast
6:14 AM 51.8 °F - 48.2 °F 88% 30.19 in 6.0 mi Calm Calm - N/A   Overcast
6:53 AM 51.1 °F - 48.0 °F 89% 30.21 in 6.0 mi Calm Calm - N/A   Overcast
7:23 AM 51.8 °F - 48.2 °F 88% 30.20 in 4.0 mi Calm Calm - N/A   Overcast
7:49 AM 51.8 °F - 48.2 °F 88% 30.22 in 1.8 mi Calm Calm - N/A   Overcast
7:53 AM 51.1 °F - 48.0 °F 89% 30.24 in 1.2 mi Calm Calm - N/A   Overcast
8:00 AM 51.8 °F - 48.2 °F 88% 30.23 in 0.8 mi Calm Calm - 0.00 in Rain Light Rain
8:08 AM 51.8 °F - 48.2 °F 88% 30.23 in 1.0 mi NNE 4.6 mph - 0.00 in Rain Light Rain
8:16 AM 51.8 °F - 48.2 °F 88% 30.23 in 1.0 mi NNE 3.5 mph - 0.01 in Rain Light Rain
8:30 AM 51.8 °F - 50.0 °F 94% 30.22 in 3.0 mi Calm Calm - 0.01 in   Overcast
8:43 AM 51.8 °F - 48.2 °F 88% 30.22 in 2.0 mi Calm Calm - 0.01 in   Overcast
8:53 AM 51.1 °F - 48.9 °F 92% 30.23 in 3.0 mi Calm Calm - 0.01 in   Overcast
9:39 AM 51.8 °F - 48.2 °F 88% 30.21 in 6.0 mi NNW 10.4 mph - N/A   Overcast
9:46 AM 51.8 °F - 48.2 °F 88% 30.22 in 7.0 mi NNW 9.2 mph - N/A   Overcast
9:53 AM 51.1 °F - 48.9 °F 92% 30.23 in 7.0 mi NNW 10.4 mph - N/A   Overcast
10:53 AM 53.1 °F - 46.9 °F 80% 30.24 in 10.0 mi WNW 8.1 mph - N/A   Overcast
11:15 AM 53.6 °F - 48.2 °F 82% 30.22 in 10.0 mi WNW 6.9 mph - N/A   Mostly Cloudy
11:53 AM 53.6 °F - 48.2 °F 82% 30.19 in 10.0 mi WNW 5.8 mph - N/A   Mostly Cloudy
12:20 PM 53.6 °F - 48.2 °F 82% 30.19 in 10.0 mi NW 6.9 mph - N/A   Scattered Clouds
12:53 PM 54.0 °F - 46.0 °F 75% 30.18 in 10.0 mi NW 5.8 mph - N/A   Unknown
1:28 PM 54.0 °F - 46.9 °F 77% 30.16 in 10.0 mi NW 11.5 mph - N/A   Mostly Cloudy
1:53 PM 53.1 °F - 46.0 °F 77% 30.15 in 10.0 mi NW 11.5 mph - N/A   Scattered Clouds
1:59 PM 54.0 °F - 46.0 °F 75% 30.15 in 10.0 mi NW 4.6 mph - N/A   Scattered Clouds
2:12 PM 54.0 °F - 46.0 °F 75% 30.14 in 10.0 mi North 8.1 mph - N/A   Partly Cloudy
2:22 PM 54.0 °F - 46.0 °F 75% 30.14 in 10.0 mi NNW 11.5 mph - N/A   Scattered Clouds
2:31 PM 54.0 °F - 45.0 °F 72% 30.14 in 10.0 mi NNW 9.2 mph - N/A   Mostly Cloudy
2:53 PM 54.0 °F - 45.0 °F 72% 30.13 in 10.0 mi NNW 11.5 mph - N/A   Partly Cloudy
3:53 PM 53.1 °F - 45.0 °F 74% 30.11 in 10.0 mi NNW 4.6 mph - N/A   Clear
4:53 PM 50.0 °F - 45.0 °F 83% 30.10 in 9.0 mi NNW 6.9 mph - N/A   Clear
5:53 PM 48.0 °F - 44.1 °F 86% 30.09 in 10.0 mi Calm Calm - N/A   Clear
6:53 PM 48.0 °F - 45.0 °F 89% 30.09 in 8.0 mi NNW 3.5 mph - N/A   Overcast
7:53 PM 48.0 °F - 45.0 °F 89% 30.07 in 8.0 mi East 3.5 mph - 0.00 in   Mostly Cloudy
8:24 PM 46.9 °F - 45.0 °F 93% 30.07 in 5.0 mi Calm Calm - N/A   Mostly Cloudy
8:53 PM 46.0 °F - 44.1 °F 93% 30.07 in 5.0 mi Calm Calm - N/A   Mostly Cloudy
9:15 PM 45.0 °F 43.5 °F 43.0 °F 93% 30.07 in 7.0 mi SSE 3.5 mph - N/A   Scattered Clouds
9:38 PM 46.0 °F - 44.1 °F 93% 30.07 in 3.0 mi Calm Calm - N/A   Mostly Cloudy
9:53 PM 45.0 °F 43.5 °F 43.0 °F 93% 30.07 in 4.0 mi ESE 3.5 mph - N/A   Overcast
10:09 PM 45.0 °F 42.6 °F 43.0 °F 93% 30.06 in 7.0 mi ESE 4.6 mph - N/A   Mostly Cloudy
10:53 PM 44.1 °F 42.5 °F 42.1 °F 93% 30.06 in 5.0 mi East 3.5 mph - N/A   Scattered Clouds
11:41 PM 42.1 °F - 39.9 °F 92% 30.04 in 1.8 mi Calm Calm - N/A   Partly Cloudy
11:50 PM 41.0 °F - 39.2 °F 93% 30.04 in 3.0 mi Calm Calm - N/A   Clear
11:53 PM 42.1 °F - 39.9 °F 92% 30.04 in 4.0 mi Calm Calm - N/A   Clear